User: anonymous   Login
Location: Unspecified
(0.0000°N, 0.0000°E)
Time: 06:41:00
(UTC+00:00)
Language:

Kosmos-1000 - Orbit

View from above orbital plane
View from above orbital plane
View from above satellite
View from above satellite

Ground track
Ground track

The orbit data is extracted from the following two-line orbital elements,

1 10776U 78034A   18173.58115382 +.00000035 +00000-0 +20244-4 0  9990
2 10776 082.9422 350.3103 0034789 009.8324 053.1667 13.75334195018583
Epoch (UTC): 22 June 2018 13:56:51
Eccentricity: 0.0034789
inclination: 82.9422°
perigee height: 955 km
apogee height: 1006 km
right ascension of ascending node: 350.3103°
argument of perigee: 9.8324°
revolutions per day: 13.75334195
mean anomaly at epoch: 53.1667°
orbit number at epoch: 1858

The dashed part of the orbit path shows where the satellite is in the earth's shadow,  

DLR